Terminal Aerodrome Forecast
Issued by NWS

Current Version | Previous Version | Graphics & Text | Print | Product List | Glossary On
Versions: 1 2 3 4 5 6 7 8 9 10 11 12 13 14 15 16 17 18 19 20
172
FTUS41 KPBZ 102043 AAB
TAFHLG
TAF AMD
KHLG 102043Z 1021/1118 24010G20KT 2SM -SHSN OVC025
      TEMPO 1021/1023 3SM -SHSN
     FM102300 26010G20KT 1SM -SHSN OVC012
     FM110300 27010G15KT 3SM -SHSN OVC012
     FM111200 28010G20KT 6SM -SHSN OVC025=

USA.gov is the U.S. government's official web portal to all federal, state and local government web resources and services.